Location: Bartlett
(35.2045°N, 89.8740°W)
Time: 17:10:18
(UTC+00:00)

Transit 4A - Pass Details

Date: 20 December 2025
Orbit: 867 x 974 km, 66.8° (Epoch: 14 January)

Event Time Altitude Azimuth Distance (km) Brightness Sun altitude
Rises 21:31:47 0° 164° (SSE) 3,443 11.2 12.5°
Reaches altitude 10° 21:35:01 10° 146° (SSE) 2,503 10.3 12.0°
Maximum altitude 21:38:49 18° 105° (ESE) 1,980 9.4 11.4°
Drops below altitude 10° 21:42:38 10° 63° (ENE) 2,513 9.6 10.8°
Sets 21:45:52 0° 45° (NE) 3,463 10.2 10.2°
